When you browse on this site, cookies collect data to enhance your experience and personalize the content and advertising you see.
Visit our Privacy Policy to learn more. By continuing to use the site, you agree to this use of cookies and data.
  • In Schweiz
  • Länderverzeichnis
  • Für 7 Tage
  • Wassertemperatur
  • Satellitenkarten
  • Wetterkarte
  • Widgets
  • user-avatar
    Anmelden

    Stündliche Wetter Nizhnie Balmazy

    Heute, 20 November, Dienstag

    Zeit Temperatur Niederschläge Wind Luftdruck Luftfeuchtigkeit
    00:00 -1°C° 0.2 mm 1 m/S 752 mmHg 95%
    01:00 -1°C° 0.2 mm 1 m/S 752 mmHg 95%
    02:00 -1°C° 0.1 mm 1 m/S 752 mmHg 95%
    03:00 -1°C° 0.1 mm 1 m/S 752 mmHg 95%
    04:00 -1°C° 0 mm 1 m/S 751 mmHg 95%
    05:00 -2°C° 0.1 mm 1 m/S 751 mmHg 95%
    06:00 -2°C° 0.1 mm 1 m/S 751 mmHg 96%
    07:00 -2°C° 0.1 mm 1 m/S 751 mmHg 96%
    08:00 -1°C° 0.1 mm 1 m/S 751 mmHg 95%
    09:00 -1°C° 0.1 mm 1 m/S 751 mmHg 93%
    10:00 -1°C° 0 mm 1 m/S 750 mmHg 92%
    11:00 -1°C° 0 mm 1 m/S 750 mmHg 91%
    12:00 -2°C° 0 mm 2 m/S 750 mmHg 90%
    13:00 -2°C° 0 mm 2 m/S 750 mmHg 88%
    14:00 -2°C° 0 mm 2 m/S 750 mmHg 90%
    15:00 -2°C° 0 mm 2 m/S 749 mmHg 92%
    16:00 -2°C° 0 mm 2 m/S 749 mmHg 94%
    17:00 -2°C° 0 mm 2 m/S 749 mmHg 94%
    18:00 -3°C° 0 mm 2 m/S 748 mmHg 95%
    19:00 -3°C° 0 mm 2 m/S 748 mmHg 95%
    20:00 -3°C° 0 mm 2 m/S 748 mmHg 95%
    21:00 -4°C° 0 mm 3 m/S 747 mmHg 94%
    22:00 -4°C° 0 mm 3 m/S 747 mmHg 94%
    23:00 -4°C° 0.1 mm 3 m/S 746 mmHg 93%

    Morgen, 21 November, Mittwoch

    Zeit Temperatur Niederschläge Wind Luftdruck Luftfeuchtigkeit
    00:00 -4°C° 0.1 mm 3 m/S 746 mmHg 92%
    01:00 -4°C° 0.1 mm 3 m/S 745 mmHg 91%
    02:00 -4°C° 0 mm 4 m/S 745 mmHg 90%
    03:00 -5°C° 0 mm 4 m/S 744 mmHg 89%
    04:00 -6°C° 0 mm 5 m/S 744 mmHg 88%
    05:00 -6°C° 0.1 mm 5 m/S 743 mmHg 87%
    06:00 -6°C° 0.1 mm 5 m/S 742 mmHg 85%
    07:00 -6°C° 0.1 mm 5 m/S 741 mmHg 84%
    08:00 -6°C° 0.2 mm 5 m/S 740 mmHg 84%
    09:00 -6°C° 0.2 mm 6 m/S 740 mmHg 85%
    10:00 -6°C° 0.2 mm 6 m/S 739 mmHg 85%
    11:00 -6°C° 0.4 mm 6 m/S 738 mmHg 86%
    12:00 -6°C° 0.4 mm 6 m/S 737 mmHg 87%
    13:00 -6°C° 0.4 mm 6 m/S 737 mmHg 88%
    14:00 -6°C° 0.4 mm 5 m/S 736 mmHg 89%
    15:00 -6°C° 0.4 mm 5 m/S 736 mmHg 89%
    16:00 -6°C° 0.4 mm 5 m/S 735 mmHg 90%
    17:00 -6°C° 0.3 mm 5 m/S 735 mmHg 90%
    18:00 -6°C° 0.3 mm 5 m/S 734 mmHg 90%
    19:00 -6°C° 0.3 mm 5 m/S 734 mmHg 91%
    20:00 -6°C° 0.2 mm 5 m/S 734 mmHg 88%
    21:00 -7°C° 0.2 mm 5 m/S 734 mmHg 86%
    22:00 -8°C° 0.2 mm 5 m/S 733 mmHg 84%
    23:00 -8°C° 0.1 mm 5 m/S 734 mmHg 85%

    übermorgen, 22 November, Donnerstag

    Zeit Temperatur Niederschläge Wind Luftdruck Luftfeuchtigkeit
    00:00 -8°C° 0.1 mm 5 m/S 734 mmHg 86%
    01:00 -10°C° 0.1 mm 5 m/S 734 mmHg 87%
    02:00 -10°C° 0.2 mm 5 m/S 734 mmHg 86%
    03:00 -10°C° 0.2 mm 5 m/S 734 mmHg 85%
    04:00 -10°C° 0.2 mm 5 m/S 735 mmHg 84%
    05:00 -9°C° 0.1 mm 4 m/S 735 mmHg 85%
    06:00 -9°C° 0.1 mm 4 m/S 735 mmHg 86%
    07:00 -10°C° 0.1 mm 4 m/S 735 mmHg 87%
    08:00 -10°C° 0.1 mm 4 m/S 736 mmHg 85%
    09:00 -11°C° 0.1 mm 4 m/S 736 mmHg 83%
    10:00 -11°C° 0.1 mm 4 m/S 736 mmHg 81%
    11:00 -11°C° 0 mm 4 m/S 736 mmHg 79%
    12:00 -11°C° 0 mm 4 m/S 736 mmHg 78%
    13:00 -11°C° 0 mm 4 m/S 736 mmHg 76%
    14:00 -10°C° 0 mm 3 m/S 736 mmHg 80%
    15:00 -12°C° 0 mm 3 m/S 737 mmHg 84%
    16:00 -12°C° 0 mm 3 m/S 737 mmHg 87%
    17:00 -13°C° 0 mm 3 m/S 736 mmHg 90%
    18:00 -13°C° 0 mm 3 m/S 736 mmHg 92%
    19:00 -14°C° 0 mm 3 m/S 736 mmHg 94%
    20:00 -13°C° 0 mm 3 m/S 735 mmHg 91%
    21:00 -13°C° 0 mm 3 m/S 735 mmHg 89%
    22:00 -12°C° 0 mm 4 m/S 734 mmHg 86%
    23:00 -11°C° 0.3 mm 4 m/S 733 mmHg 88%

    23 November, Freitag

    Zeit Temperatur Niederschläge Wind Luftdruck Luftfeuchtigkeit
    00:00 -12°C° 0.3 mm 5 m/S 733 mmHg 89%
    01:00 -11°C° 0.3 mm 5 m/S 732 mmHg 90%
    02:00 -10°C° 0.5 mm 5 m/S 732 mmHg 90%
    03:00 -8°C° 0.5 mm 5 m/S 731 mmHg 91%
    04:00 -8°C° 0.5 mm 5 m/S 731 mmHg 91%
    05:00 -8°C° 0.2 mm 4 m/S 731 mmHg 91%
    06:00 -8°C° 0.2 mm 4 m/S 731 mmHg 92%
    07:00 -8°C° 0.2 mm 4 m/S 731 mmHg 92%
    08:00 -7°C° 0.2 mm 3 m/S 731 mmHg 92%
    09:00 -7°C° 0.2 mm 3 m/S 732 mmHg 92%
    10:00 -7°C° 0.2 mm 3 m/S 732 mmHg 91%
    11:00 -7°C° 0.1 mm 3 m/S 732 mmHg 90%
    12:00 -7°C° 0.1 mm 3 m/S 733 mmHg 89%
    13:00 -8°C° 0.1 mm 3 m/S 733 mmHg 88%
    14:00 -8°C° 0.1 mm 3 m/S 734 mmHg 88%
    15:00 -9°C° 0.1 mm 3 m/S 734 mmHg 88%
    16:00 -11°C° 0.1 mm 4 m/S 735 mmHg 88%
    17:00 -12°C° 0 mm 4 m/S 736 mmHg 87%
    18:00 -13°C° 0 mm 5 m/S 736 mmHg 86%
    19:00 -14°C° 0 mm 5 m/S 737 mmHg 85%
    20:00 -15°C° 0 mm 5 m/S 738 mmHg 86%
    21:00 -17°C° 0 mm 5 m/S 739 mmHg 87%
    22:00 -16°C° 0 mm 4 m/S 739 mmHg 87%
    23:00 -17°C° 0 mm 4 m/S 740 mmHg 89%

    24 November, Samstag

    Zeit Temperatur Niederschläge Wind Luftdruck Luftfeuchtigkeit
    00:00 -17°C° 0 mm 3 m/S 741 mmHg 91%
    01:00 -18°C° 0 mm 3 m/S 742 mmHg 94%
    02:00 -18°C° 0 mm 3 m/S 742 mmHg 95%
    03:00 -18°C° 0 mm 2 m/S 743 mmHg 96%
    04:00 -18°C° 0 mm 2 m/S 743 mmHg 97%
    05:00 -18°C° 0 mm 2 m/S 744 mmHg 97%
    06:00 -18°C° 0 mm 2 m/S 744 mmHg 97%
    07:00 -18°C° 0 mm 2 m/S 744 mmHg 97%
    08:00 -17°C° 0.1 mm 2 m/S 744 mmHg 96%
    09:00 -17°C° 0.1 mm 3 m/S 744 mmHg 94%
    10:00 -17°C° 0.1 mm 4 m/S 744 mmHg 93%
    11:00 -16°C° 0.1 mm 4 m/S 744 mmHg 92%
    12:00 -14°C° 0.1 mm 5 m/S 744 mmHg 90%
    13:00 -13°C° 0.1 mm 5 m/S 744 mmHg 89%
    14:00 -14°C° 0.3 mm 6 m/S 743 mmHg 89%
    15:00 -12°C° 0.3 mm 6 m/S 743 mmHg 90%
    16:00 -11°C° 0.3 mm 6 m/S 743 mmHg 90%
    17:00 -12°C° 0.3 mm 7 m/S 742 mmHg 90%
    18:00 -11°C° 0.3 mm 7 m/S 742 mmHg 89%
    19:00 -11°C° 0.3 mm 7 m/S 742 mmHg 89%
    20:00 -11°C° 0.2 mm 7 m/S 742 mmHg 88%
    21:00 -11°C° 0.2 mm 7 m/S 742 mmHg 87%
    22:00 -11°C° 0.2 mm 7 m/S 742 mmHg 86%
    23:00 -11°C° 0.2 mm 7 m/S 742 mmHg 87%

    25 November, Sonntag

    Zeit Temperatur Niederschläge Wind Luftdruck Luftfeuchtigkeit
    00:00 -9°C° 0.2 mm 7 m/S 742 mmHg 87%
    01:00 -9°C° 0.2 mm 7 m/S 742 mmHg 88%
    02:00 -9°C° 0.2 mm 7 m/S 741 mmHg 87%
    03:00 -9°C° 0.2 mm 7 m/S 741 mmHg 87%
    04:00 -8°C° 0.2 mm 7 m/S 741 mmHg 87%
    05:00 -8°C° 0.2 mm 7 m/S 741 mmHg 87%
    06:00 -8°C° 0.2 mm 7 m/S 740 mmHg 87%
    07:00 -8°C° 0.2 mm 8 m/S 740 mmHg 86%
    08:00 -8°C° 0.3 mm 7 m/S 740 mmHg 87%
    09:00 -8°C° 0.3 mm 7 m/S 740 mmHg 87%
    10:00 -7°C° 0.3 mm 7 m/S 741 mmHg 87%
    11:00 -7°C° 0.2 mm 7 m/S 741 mmHg 87%
    12:00 -7°C° 0.2 mm 7 m/S 741 mmHg 87%
    13:00 -7°C° 0.2 mm 7 m/S 741 mmHg 87%
    14:00 -6°C° 0.1 mm 6 m/S 742 mmHg 87%
    15:00 -6°C° 0.1 mm 6 m/S 743 mmHg 87%
    16:00 -6°C° 0.1 mm 5 m/S 743 mmHg 87%
    17:00 -6°C° 0.1 mm 5 m/S 744 mmHg 88%
    18:00 -7°C° 0.1 mm 5 m/S 744 mmHg 89%
    19:00 -7°C° 0.1 mm 5 m/S 745 mmHg 90%
    20:00 -7°C° 0.1 mm 4 m/S 746 mmHg 91%
    21:00 -7°C° 0.1 mm 4 m/S 746 mmHg 91%
    22:00 -8°C° 0.1 mm 4 m/S 746 mmHg 92%
    23:00 -8°C° 0 mm 4 m/S 747 mmHg 93%
    Mehr zeigen